Wind_Speed
20 21 20 17 16 16 16 16 15 15 18 15 16 13 16 16 15 14 14 11 12 13 12 9 8 5 1 1 2 5 6 7 11 14 16 17 19 18 18 15 13 12 12 17 22
23 24 22 20 17 15 15 16 15 15 18 18 18 14 16 16 16 15 16 14 13 14 16 13 9 6 1 2 3 3 4 5 6 11 13 19 22 25 16 8 12 9 13 14 22
28 27 26 23 21 19 16 16 16 15 15 17 19 16 15 16 17 17 17 15 15 15 16 15 8 5 1 2 4 6 3 7 2 8 17 17 20 24 28 22 11 10 10 9 20
31 31 31 27 25 22 20 17 15 15 16 15 19 17 15 16 17 17 19 17 16 17 17 16 12 3 2 2 4 4 6 3 6 7 14 16 21 22 24 25 22 16 8 10 21
27 30 32 32 30 26 20 16 15 15 15 17 18 20 18 16 17 18 20 18 18 19 19 22 15 4 2 0 2 3 1 10 3 5 9 12 16 16 19 18 18 20 15 16 19
22 24 26 27 27 23 18 15 15 16 16 16 18 16 21 17 18 20 21 20 20 20 21 20 16 6 2 2 1 2 6 6 4 2 5 10 13 15 15 16 17 20 23 20 19
21 21 21 21 20 18 16 15 15 15 15 15 17 17 22 18 21 22 22 23 22 19 19 20 21 10 5 1 2 8 7 4 2 1 8 9 11 11 12 13 16 20 21 20 22
22 20 20 19 18 16 16 16 16 16 14 14 17 18 22 20 20 21 23 22 19 19 19 19 22 16 8 5 5 9 7 5 4 5 9 9 7 7 11 14 17 20 24 27 27
23 21 19 19 17 16 16 17 16 15 14 13 16 20 24 22 19 22 23 23 22 21 20 20 19 16 12 9 8 11 10 4 5 5 7 6 9 8 12 16 21 22 26 29 27
24 23 21 19 18 17 16 16 15 12 13 14 17 20 24 22 21 22 23 20 21 22 21 20 20 18 16 11 9 9 10 6 6 8 8 8 10 12 14 17 19 24 27 25 27
25 24 22 20 19 18 17 16 16 14 14 15 17 23 25 27 24 22 23 19 19 22 21 21 19 16 14 16 18 15 11 9 11 11 11 10 12 15 17 17 20 26 26 29 29
27 25 24 21 20 20 18 17 16 15 14 14 18 24 28 27 25 23 22 20 19 22 21 24 19 22 23 20 19 16 11 11 15 14 15 13 14 16 17 20 24 26 28 29 31
30 27 26 23 21 21 19 18 16 16 16 13 18 24 29 29 27 25 25 23 21 22 22 25 23 22 23 23 22 17 13 15 21 22 21 19 18 19 20 22 24 25 27 30 34
32 30 28 24 21 21 21 20 19 18 18 15 17 20 30 31 28 26 26 26 24 24 24 27 27 23 21 22 21 16 19 20 23 26 21 19 19 18 20 20 22 25 26 31 32
34 32 31 27 22 21 21 21 19 18 17 17 17 18 29 33 30 26 27 27 26 26 26 26 25 22 22 21 21 22 22 26 24 23 22 21 25 21 23 24 24 23 27 31 30
34 33 32 30 24 22 21 21 19 18 17 15 14 17 25 35 32 28 28 29 30 27 27 26 24 28 32 23 22 22 21 21 20 18 19 19 22 21 24 22 21 24 28 31 30
35 34 33 32 25 24 23 22 19 19 18 16 13 16 20 32 34 31 29 30 30 29 29 26 25 28 27 25 21 20 19 16 17 17 19 20 22 23 23 22 23 26 30 28 27
36 34 34 34 27 26 25 23 21 22 19 15 16 16 18 22 32 34 29 32 31 29 32 29 28 24 23 18 15 14 12 13 16 17 19 18 19 22 21 22 24 28 27 25 25
38 35 36 35 30 29 27 24 22 22 20 17 19 17 20 21 27 33 29 29 30 31 35 32 27 24 22 18 19 13 11 8 13 19 21 18 17 20 22 24 26 25 24 25 25
40 38 39 36 32 31 29 24 24 23 21 20 20 18 17 19 25 31 32 31 29 31 38 34 27 26 23 20 17 15 12 11 15 18 16 16 18 19 23 26 23 22 24 26 26
43 42 42 38 35 33 28 24 26 23 24 22 21 20 19 20 22 27 29 30 32 36 36 34 30 27 24 22 16 15 14 17 16 17 19 21 21 24 24 23 21 22 23 26 25
47 44 44 40 38 33 28 27 28 26 26 24 21 19 20 20 21 23 27 30 33 36 32 32 29 27 24 19 19 18 17 17 19 21 23 25 25 27 23 20 20 21 23 24 24
48 48 46 41 39 35 31 30 29 29 28 24 22 22 22 16 21 26 29 34 37 33 30 30 28 24 22 21 20 19 19 21 22 21 24 26 27 23 20 18 20 22 23 23 25
49 51 49 43 40 37 33 32 31 30 29 24 24 23 20 20 24 25 27 31 34 30 27 25 25 23 21 18 19 20 21 23 24 25 25 23 22 20 17 17 20 21 22 24 25
51 53 51 46 42 39 36 34 33 32 28 25 24 21 20 23 26 24 25 32 33 28 26 26 28 25 26 18 20 24 23 22 19 20 20 20 19 16 15 17 19 19 22 25 25
51 52 51 47 44 41 38 36 36 34 31 28 25 23 26 25 24 26 27 30 31 32 28 26 27 26 26 17 20 23 18 15 17 18 17 17 15 14 13 17 17 19 23 24 23
52 52 51 50 46 43 41 40 40 35 33 32 29 25 28 26 26 24 29 30 30 31 31 29 23 20 22 13 17 17 12 15 16 16 14 14 13 13 15 16 16 19 23 22 22
Wind_Direction
264 265 268 259 253 248 248 239 244 243 239 237 233 218 210 198 192 190 188 201 200 187 195 206 218 228 334 235 66 48 43 68 23 52 55 49 44 35 35 24 41 23 17 48 41
263 265 263 263 259 254 253 254 241 239 237 238 236 229 210 200 196 192 187 202 199 188 200 210 212 225 229 16 49 6 57 35 26 81 59 43 41 20 24 27 22 35 44 51 41
259 261 261 262 263 263 262 256 244 238 234 228 230 235 215 206 199 192 190 202 199 201 209 216 212 233 348 35 8 3 12 18 133 84 65 54 23 30 41 26 17 39 62 36 30
249 254 261 259 260 264 265 258 245 241 232 222 218 232 220 207 204 193 193 202 199 204 206 221 221 249 339 10 342 332 31 13 150 65 80 38 24 25 38 33 37 27 13 351 351
246 248 250 257 261 265 260 249 242 240 235 228 217 222 219 209 203 195 196 201 201 200 211 218 220 230 259 17 358 340 115 157 124 57 71 33 25 38 22 20 20 23 357 336 338
245 245 245 247 255 258 250 235 242 234 233 230 223 218 212 213 203 199 198 201 200 204 215 223 225 240 255 291 319 162 138 162 201 96 25 28 18 10 13 11 18 11 5 359 348
244 246 243 239 244 245 235 228 235 235 227 226 222 217 207 210 209 203 202 206 201 207 217 223 226 224 228 172 110 190 172 205 241 352 12 16 4 355 2 11 10 13 3 346 338
246 245 241 236 236 236 230 227 226 222 222 223 222 212 207 209 212 208 208 207 202 209 213 223 225 234 212 210 172 173 203 243 283 356 17 17 25 330 2 2 4 0 349 349 337
243 245 242 234 232 228 226 226 223 216 217 221 216 209 205 208 212 214 213 209 200 199 213 218 226 229 214 210 208 201 226 235 284 331 359 23 350 349 360 358 354 350 339 343 338
240 240 239 235 230 228 223 223 222 218 223 219 217 214 205 201 207 210 216 213 206 198 205 210 223 222 204 205 219 233 246 258 298 315 341 352 353 351 356 358 346 348 345 334 334
238 239 234 233 228 229 224 218 220 222 222 222 216 214 206 201 204 206 211 205 209 203 198 199 216 230 214 208 218 231 253 281 297 307 317 329 330 349 352 347 331 337 335 335 334
237 236 234 230 228 230 229 220 215 220 221 224 217 212 205 203 203 204 208 206 207 209 201 200 208 219 227 221 225 228 248 277 287 293 302 309 318 337 337 337 335 337 329 327 331
235 236 234 229 227 225 226 221 218 220 223 215 212 210 207 205 205 203 202 203 206 209 199 204 212 226 232 224 227 233 246 264 273 284 298 312 324 328 327 330 331 332 324 322 330
233 234 233 229 224 223 220 218 213 214 218 212 210 206 205 209 204 204 206 199 199 208 202 205 214 225 232 225 231 240 242 255 269 278 291 308 319 333 331 333 330 325 316 330 333
230 231 233 227 222 223 219 216 213 211 218 210 210 201 202 209 208 203 205 204 201 203 205 212 219 226 219 228 232 237 246 256 269 279 290 300 313 319 327 330 327 314 316 324 329
228 228 230 229 221 221 221 221 215 215 218 211 209 203 205 209 207 205 205 204 201 201 204 209 215 211 211 221 234 243 253 262 271 291 302 309 307 325 329 324 318 313 320 321 327
225 226 229 228 219 221 221 222 218 219 217 216 214 206 209 214 207 208 206 204 206 203 205 201 207 203 214 224 241 249 256 269 284 299 306 306 311 319 321 319 315 315 314 321 323
221 223 227 227 218 219 221 221 220 224 222 215 215 214 214 218 215 211 209 205 205 201 201 203 200 206 224 235 253 242 254 273 289 310 314 309 308 309 316 312 318 319 322 320 320
218 219 223 224 219 218 221 220 220 225 228 226 225 220 221 218 218 215 212 208 206 199 198 205 204 210 220 227 235 244 260 256 292 306 310 311 304 310 315 322 325 329 326 321 324
217 216 221 220 218 218 220 219 221 223 226 226 228 228 230 222 214 215 214 207 201 194 200 206 207 206 212 224 237 246 246 269 283 306 314 317 321 316 323 332 330 332 325 324 330
216 215 217 217 216 217 215 217 224 221 222 223 227 231 231 232 217 213 212 205 196 190 196 203 202 210 212 231 244 252 253 270 282 301 309 313 318 320 324 329 329 328 326 328 331
215 216 216 214 215 217 211 212 220 220 224 222 221 217 218 220 218 215 208 200 192 190 195 205 211 216 228 232 246 252 260 275 289 295 295 307 315 320 325 328 326 326 329 331 330
214 215 216 212 211 212 208 210 217 218 222 218 217 211 210 209 214 205 197 197 189 195 197 209 215 226 228 235 245 257 270 280 286 291 297 306 311 317 322 326 328 330 333 331 334
213 214 214 211 208 209 207 207 212 216 221 213 202 203 203 202 206 197 195 193 187 191 202 209 221 231 241 242 256 272 282 282 287 292 297 305 310 317 320 329 332 330 333 335 339
212 214 213 210 206 205 204 205 210 215 214 204 195 200 197 198 193 185 191 195 191 196 202 217 222 223 228 238 269 282 284 283 291 294 296 306 310 314 325 334 327 330 338 338 345
211 212 211 209 206 204 203 203 209 211 209 200 195 197 195 191 193 189 195 191 198 204 205 212 221 236 244 258 277 283 282 292 291 290 301 307 307 318 329 329 324 336 338 342 348
209 211 209 208 206 203 200 202 209 209 204 200 199 196 198 190 196 197 188 190 195 199 215 225 223 229 251 256 265 274 292 295 295 298 303 306 312 323 323 321 327 336 340 347 345
Height
5853 5855 5856 5859 5861 5864 5863 5865 5868 5868 5871 5873 5875 5876 5879 5882 5884 5887 5888 5890 5891 5892 5894 5894 5896 5897 5900 5902 5904 5905 5907 5908 5906 5904 5903 5901 5899 5900 5897 5895 5892 5892 5892 5890 5887
5850 5851 5853 5855 5857 5860 5861 5863 5864 5866 5868 5871 5872 5873 5877 5880 5883 5886 5887 5888 5890 5891 5893 5894 5896 5898 5900 5903 5905 5907 5907 5908 5907 5905 5903 5901 5900 5900 5896 5893 5893 5891 5891 5890 5888
5845 5846 5848 5851 5853 5856 5858 5861 5860 5863 5865 5868 5869 5871 5874 5878 5882 5884 5885 5887 5889 5890 5892 5894 5896 5899 5900 5902 5905 5907 5908 5908 5907 5904 5904 5902 5900 5900 5894 5893 5893 5892 5890 5889 5887
5842 5842 5842 5845 5849 5852 5854 5856 5858 5860 5862 5864 5865 5868 5872 5877 5881 5882 5884 5886 5888 5889 5892 5894 5896 5899 5900 5903 5905 5907 5908 5908 5907 5905 5903 5902 5901 5900 5897 5896 5895 5893 5891 5889 5887
5837 5838 5840 5840 5843 5847 5850 5852 5855 5857 5858 5861 5862 5866 5869 5874 5877 5880 5882 5885 5886 5888 5890 5892 5895 5899 5900 5903 5905 5907 5908 5908 5907 5905 5902 5901 5901 5900 5898 5896 5894 5893 5892 5890 5886
5832 5834 5835 5837 5839 5841 5845 5848 5851 5853 5855 5857 5859 5862 5867 5871 5874 5877 5880 5883 5885 5887 5889 5891 5894 5899 5900 5902 5905 5907 5906 5907 5906 5904 5902 5900 5899 5899 5897 5895 5893 5891 5890 5887 5883
5828 5829 5830 5832 5835 5838 5841 5845 5847 5849 5852 5853 5856 5859 5864 5868 5871 5875 5878 5881 5883 5886 5888 5890 5892 5898 5900 5902 5904 5905 5905 5905 5905 5904 5902 5900 5898 5897 5895 5894 5892 5890 5887 5885 5881
5824 5825 5826 5828 5831 5834 5837 5841 5843 5846 5848 5850 5853 5855 5859 5864 5869 5872 5876 5880 5883 5885 5887 5889 5890 5895 5899 5901 5902 5903 5904 5903 5904 5904 5902 5900 5898 5896 5893 5891 5891 5889 5886 5884 5880
5820 5821 5822 5825 5827 5831 5834 5838 5840 5842 5845 5847 5849 5851 5857 5862 5866 5870 5874 5877 5880 5883 5886 5888 5889 5893 5896 5899 5901 5901 5902 5902 5902 5902 5901 5900 5899 5895 5892 5889 5888 5886 5884 5881 5879
5815 5817 5818 5821 5824 5827 5831 5834 5836 5838 5841 5844 5846 5850 5854 5859 5862 5867 5872 5876 5878 5882 5885 5887 5887 5890 5895 5897 5899 5899 5899 5899 5900 5899 5899 5899 5898 5895 5891 5888 5887 5886 5883 5880 5877
5810 5812 5814 5817 5821 5824 5827 5830 5834 5837 5838 5840 5843 5846 5850 5854 5859 5864 5869 5873 5876 5880 5883 5885 5886 5887 5893 5894 5895 5896 5896 5897 5897 5897 5897 5896 5895 5894 5891 5888 5886 5885 5881 5876 5873
5804 5807 5810 5813 5817 5819 5823 5826 5830 5832 5835 5836 5839 5841 5846 5850 5855 5860 5866 5871 5873 5878 5881 5883 5885 5885 5886 5889 5891 5893 5894 5894 5895 5896 5896 5895 5894 5892 5890 5888 5885 5882 5877 5872 5868
5798 5801 5805 5810 5813 5816 5818 5822 5825 5828 5830 5834 5835 5838 5842 5847 5852 5856 5862 5866 5870 5874 5878 5880 5883 5883 5885 5887 5890 5893 5894 5894 5893 5893 5892 5891 5890 5889 5888 5886 5883 5879 5874 5869 5865
5792 5796 5799 5805 5811 5811 5815 5818 5822 5825 5828 5831 5832 5835 5839 5843 5848 5853 5858 5862 5866 5871 5874 5876 5879 5882 5884 5887 5890 5893 5892 5892 5892 5891 5890 5889 5888 5888 5886 5884 5880 5875 5869 5866 5861
5786 5790 5793 5799 5804 5807 5811 5814 5818 5821 5824 5828 5829 5832 5835 5839 5845 5850 5854 5857 5861 5867 5871 5874 5877 5880 5882 5886 5889 5891 5890 5889 5889 5889 5888 5887 5884 5885 5883 5880 5877 5872 5867 5863 5859
5779 5784 5788 5793 5799 5802 5805 5809 5814 5818 5819 5823 5825 5828 5831 5833 5840 5845 5849 5854 5857 5863 5867 5871 5876 5878 5881 5884 5886 5888 5888 5888 5887 5887 5886 5884 5882 5881 5879 5876 5873 5868 5863 5860 5855
5771 5777 5782 5787 5794 5796 5800 5804 5810 5811 5816 5819 5821 5824 5828 5830 5836 5841 5846 5851 5855 5859 5864 5868 5873 5877 5879 5881 5883 5885 5886 5885 5885 5884 5884 5881 5877 5876 5874 5870 5866 5862 5859 5857 5852
5763 5771 5776 5781 5788 5791 5795 5800 5805 5806 5810 5815 5817 5820 5824 5827 5833 5837 5841 5845 5852 5857 5861 5867 5872 5874 5877 5880 5883 5883 5883 5883 5882 5881 5880 5877 5876 5874 5870 5866 5863 5859 5857 5853 5848
5756 5763 5768 5775 5782 5786 5790 5796 5800 5802 5806 5810 5813 5817 5820 5824 5828 5833 5838 5844 5848 5853 5859 5863 5868 5872 5875 5877 5880 5880 5880 5881 5880 5879 5876 5875 5874 5870 5866 5862 5859 5856 5854 5850 5845
5748 5755 5760 5768 5776 5780 5785 5792 5795 5799 5803 5806 5808 5812 5815 5819 5825 5831 5835 5840 5845 5851 5855 5859 5866 5869 5872 5874 5876 5877 5878 5878 5878 5876 5874 5872 5869 5866 5862 5859 5856 5853 5851 5847 5841
5740 5746 5752 5760 5768 5774 5781 5787 5790 5795 5799 5803 5805 5808 5811 5814 5820 5826 5832 5838 5842 5846 5852 5857 5863 5867 5870 5871 5873 5874 5874 5875 5875 5874 5871 5868 5866 5862 5859 5855 5852 5849 5845 5842 5837
5731 5737 5744 5753 5762 5769 5777 5781 5785 5791 5795 5799 5802 5804 5807 5811 5816 5822 5829 5835 5840 5844 5850 5855 5859 5864 5867 5868 5870 5870 5871 5871 5870 5869 5866 5864 5862 5858 5854 5850 5847 5845 5842 5839 5835
5722 5730 5736 5746 5756 5763 5770 5776 5780 5786 5790 5795 5798 5801 5804 5809 5815 5819 5824 5830 5837 5843 5848 5851 5855 5860 5862 5865 5867 5867 5868 5866 5865 5863 5861 5859 5857 5853 5850 5846 5844 5841 5839 5836 5832
5714 5721 5729 5739 5749 5757 5764 5770 5775 5781 5786 5791 5794 5798 5803 5808 5813 5817 5822 5828 5835 5840 5846 5849 5853 5857 5860 5862 5863 5863 5863 5861 5860 5858 5856 5854 5852 5849 5846 5843 5841 5839 5836 5833 5828
5704 5711 5722 5732 5741 5750 5757 5765 5770 5776 5781 5786 5791 5796 5800 5806 5811 5815 5821 5827 5833 5838 5842 5846 5850 5852 5853 5855 5859 5859 5858 5856 5854 5853 5852 5850 5848 5846 5843 5840 5838 5836 5833 5829 5823
5695 5703 5715 5726 5735 5743 5751 5759 5764 5770 5778 5784 5789 5793 5798 5806 5811 5815 5820 5824 5830 5835 5839 5842 5845 5847 5849 5852 5854 5853 5853 5851 5849 5848 5846 5846 5845 5842 5839 5838 5836 5833 5829 5825 5820
5684 5695 5707 5718 5727 5737 5745 5751 5757 5766 5774 5780 5786 5791 5796 5803 5809 5813 5818 5822 5826 5831 5836 5839 5843 5844 5845 5847 5849 5849 5848 5847 5846 5844 5843 5842 5841 5839 5836 5835 5833 5829 5826 5822 5818